• In Russia
  • List of Countries
  • For 7 days
  • Water Temperature
  • Satellite Maps
  • Weather Map
  • Weather Widgets
  • user-avatar
    Login

    Hourly Weather Hobart

    Today, 23 March, Thursday

    Time Temperature Precipitation Wind Pressure Humidity
    00:00 +10°C° 0 mm 2 mps 755 mmHg 94%
    01:00 +10°C° 0 mm 2 mps 755 mmHg 94%
    02:00 +10°C° 0.1 mm 2 mps 755 mmHg 95%
    03:00 +10°C° 0.1 mm 2 mps 755 mmHg 96%
    04:00 +10°C° 0 mm 2 mps 755 mmHg 96%
    05:00 +10°C° 0.1 mm 2 mps 755 mmHg 97%
    06:00 +10°C° 0.1 mm 2 mps 755 mmHg 97%
    07:00 +12°C° 0.1 mm 2 mps 756 mmHg 97%
    08:00 +13°C° 0.1 mm 2 mps 756 mmHg 91%
    09:00 +14°C° 0.1 mm 2 mps 756 mmHg 85%
    10:00 +16°C° 0 mm 2 mps 756 mmHg 78%
    11:00 +16°C° 0 mm 2 mps 755 mmHg 75%
    12:00 +17°C° 0 mm 2 mps 755 mmHg 71%
    13:00 +18°C° 0 mm 2 mps 755 mmHg 68%
    14:00 +18°C° 0 mm 2 mps 755 mmHg 68%
    15:00 +18°C° 0 mm 2 mps 755 mmHg 68%
    16:00 +18°C° 0 mm 2 mps 754 mmHg 69%
    17:00 +16°C° 0 mm 2 mps 755 mmHg 77%
    18:00 +14°C° 0 mm 2 mps 755 mmHg 86%
    19:00 +12°C° 0 mm 2 mps 755 mmHg 94%
    20:00 +12°C° 0 mm 2 mps 755 mmHg 94%
    21:00 +12°C° 0 mm 1 mps 755 mmHg 94%
    22:00 +12°C° 0 mm 1 mps 755 mmHg 94%
    23:00 +12°C° 0 mm 1 mps 755 mmHg 94%

    Tomorrow, 24 March, Friday

    Time Temperature Precipitation Wind Pressure Humidity
    00:00 +11°C° 0 mm 1 mps 755 mmHg 95%
    01:00 +10°C° 0 mm 1 mps 755 mmHg 96%
    02:00 +10°C° 0 mm 1 mps 755 mmHg 96%
    03:00 +10°C° 0 mm 1 mps 754 mmHg 97%
    04:00 +9°C° 0 mm 1 mps 754 mmHg 97%
    05:00 +10°C° 0 mm 1 mps 754 mmHg 97%
    06:00 +10°C° 0 mm 1 mps 754 mmHg 96%
    07:00 +10°C° 0 mm 1 mps 754 mmHg 96%
    08:00 +12°C° 0 mm 1 mps 754 mmHg 87%
    09:00 +14°C° 0 mm 1 mps 754 mmHg 78%
    10:00 +16°C° 0 mm 1 mps 754 mmHg 69%
    11:00 +18°C° 0 mm 2 mps 754 mmHg 62%
    12:00 +19°C° 0 mm 2 mps 754 mmHg 55%
    13:00 +20°C° 0 mm 3 mps 753 mmHg 47%
    14:00 +19°C° 0 mm 3 mps 753 mmHg 50%
    15:00 +19°C° 0 mm 4 mps 752 mmHg 53%
    16:00 +18°C° 0 mm 4 mps 752 mmHg 56%
    17:00 +17°C° 0 mm 4 mps 752 mmHg 65%
    18:00 +14°C° 0 mm 4 mps 752 mmHg 73%
    19:00 +12°C° 0 mm 4 mps 752 mmHg 82%
    20:00 +11°C° 0 mm 4 mps 752 mmHg 86%
    21:00 +11°C° 0 mm 4 mps 751 mmHg 89%
    22:00 +10°C° 0 mm 4 mps 751 mmHg 93%
    23:00 +10°C° 0 mm 4 mps 751 mmHg 92%

    Day after tomorrow, 25 March, Saturday

    Time Temperature Precipitation Wind Pressure Humidity
    00:00 +10°C° 0 mm 4 mps 750 mmHg 91%
    01:00 +10°C° 0 mm 4 mps 750 mmHg 90%
    02:00 +10°C° 0 mm 4 mps 750 mmHg 90%
    03:00 +10°C° 0 mm 4 mps 749 mmHg 91%
    04:00 +10°C° 0 mm 4 mps 749 mmHg 91%
    05:00 +10°C° 0 mm 4 mps 748 mmHg 89%
    06:00 +10°C° 0 mm 4 mps 748 mmHg 87%
    07:00 +11°C° 0 mm 4 mps 748 mmHg 85%
    08:00 +13°C° 0 mm 4 mps 748 mmHg 79%
    09:00 +14°C° 0 mm 4 mps 748 mmHg 72%
    10:00 +17°C° 0 mm 4 mps 747 mmHg 66%
    11:00 +18°C° 0 mm 4 mps 747 mmHg 63%
    12:00 +20°C° 0 mm 4 mps 747 mmHg 60%
    13:00 +21°C° 0 mm 3 mps 746 mmHg 58%
    14:00 +21°C° 0.1 mm 3 mps 746 mmHg 60%
    15:00 +22°C° 0.1 mm 3 mps 745 mmHg 62%
    16:00 +22°C° 0.1 mm 3 mps 745 mmHg 64%
    17:00 +20°C° 0 mm 3 mps 745 mmHg 72%
    18:00 +18°C° 0 mm 2 mps 745 mmHg 80%
    19:00 +16°C° 0 mm 2 mps 745 mmHg 89%
    20:00 +16°C° 0 mm 2 mps 745 mmHg 90%
    21:00 +16°C° 0 mm 2 mps 746 mmHg 92%
    22:00 +16°C° 0 mm 2 mps 746 mmHg 93%
    23:00 +16°C° 0 mm 2 mps 746 mmHg 94%

    26 March, Sunday

    Time Temperature Precipitation Wind Pressure Humidity
    00:00 +15°C° 0 mm 2 mps 746 mmHg 95%
    01:00 +15°C° 0 mm 2 mps 746 mmHg 96%
    02:00 +15°C° 0 mm 2 mps 746 mmHg 97%
    03:00 +14°C° 0 mm 2 mps 746 mmHg 97%
    04:00 +14°C° 0 mm 2 mps 746 mmHg 97%
    05:00 +14°C° 0 mm 1 mps 746 mmHg 97%
    06:00 +14°C° 0 mm 1 mps 747 mmHg 97%
    07:00 +13°C° 0 mm 1 mps 747 mmHg 97%
    08:00 +16°C° 0 mm 1 mps 747 mmHg 85%
    09:00 +20°C° 0 mm 1 mps 748 mmHg 74%
    10:00 +23°C° 0 mm 1 mps 748 mmHg 63%
    11:00 +24°C° 0 mm 1 mps 748 mmHg 57%
    12:00 +26°C° 0 mm 2 mps 748 mmHg 50%
    13:00 +27°C° 0 mm 2 mps 747 mmHg 44%
    14:00 +26°C° 0 mm 2 mps 747 mmHg 48%
    15:00 +26°C° 0 mm 3 mps 747 mmHg 52%
    16:00 +25°C° 0 mm 3 mps 746 mmHg 55%
    17:00 +22°C° 0 mm 3 mps 747 mmHg 67%
    18:00 +19°C° 0 mm 3 mps 747 mmHg 79%
    19:00 +17°C° 0 mm 3 mps 747 mmHg 91%
    20:00 +17°C° 0 mm 3 mps 747 mmHg 93%
    21:00 +17°C° 0 mm 4 mps 746 mmHg 95%
    22:00 +15°C° 0 mm 4 mps 746 mmHg 97%
    23:00 +15°C° 0 mm 4 mps 746 mmHg 97%

    27 March, Monday

    Time Temperature Precipitation Wind Pressure Humidity
    00:00 +15°C° 0 mm 4 mps 745 mmHg 97%
    01:00 +14°C° 0 mm 4 mps 744 mmHg 97%
    02:00 +15°C° 0 mm 5 mps 743 mmHg 93%
    03:00 +15°C° 0 mm 5 mps 742 mmHg 89%
    04:00 +16°C° 0 mm 5 mps 741 mmHg 85%
    05:00 +17°C° 0 mm 6 mps 740 mmHg 82%
    06:00 +19°C° 0 mm 6 mps 740 mmHg 78%
    07:00 +20°C° 0 mm 7 mps 739 mmHg 74%
    08:00 +22°C° 0 mm 7 mps 738 mmHg 66%
    09:00 +26°C° 0 mm 8 mps 737 mmHg 58%
    10:00 +28°C° 0 mm 9 mps 736 mmHg 50%
    11:00 +29°C° 0 mm 10 mps 735 mmHg 47%
    12:00 +31°C° 0 mm 11 mps 734 mmHg 45%
    13:00 +32°C° 0 mm 11 mps 734 mmHg 42%
    14:00 +27°C° 0.4 mm 11 mps 734 mmHg 50%
    15:00 +22°C° 0.4 mm 10 mps 734 mmHg 59%
    16:00 +17°C° 0.4 mm 9 mps 734 mmHg 67%
    17:00 +16°C° 0.1 mm 9 mps 735 mmHg 67%
    18:00 +14°C° 0.1 mm 10 mps 735 mmHg 67%
    19:00 +14°C° 0.1 mm 10 mps 736 mmHg 67%
    20:00 +14°C° 0 mm 10 mps 736 mmHg 67%
    21:00 +14°C° 0 mm 10 mps 736 mmHg 67%
    22:00 +14°C° 0 mm 11 mps 737 mmHg 67%
    23:00 +13°C° 0 mm 10 mps 737 mmHg 68%

    28 March, Tuesday

    Time Temperature Precipitation Wind Pressure Humidity
    00:00 +13°C° 0 mm 9 mps 737 mmHg 69%
    01:00 +13°C° 0 mm 8 mps 737 mmHg 70%
    02:00 +13°C° 0 mm 8 mps 738 mmHg 70%
    03:00 +14°C° 0 mm 7 mps 738 mmHg 70%
    04:00 +12°C° 0 mm 7 mps 739 mmHg 70%
    05:00 +12°C° 0 mm 7 mps 739 mmHg 71%
    06:00 +12°C° 0 mm 7 mps 740 mmHg 72%
    07:00 +12°C° 0 mm 7 mps 740 mmHg 73%
    08:00 +14°C° 0 mm 7 mps 740 mmHg 71%
    09:00 +14°C° 0 mm 7 mps 741 mmHg 69%
    10:00 +15°C° 0 mm 8 mps 741 mmHg 68%
    11:00 +15°C° 0 mm 8 mps 741 mmHg 67%
    12:00 +16°C° 0 mm 8 mps 741 mmHg 67%
    13:00 +16°C° 0 mm 8 mps 741 mmHg 66%
    14:00 +16°C° 0.1 mm 7 mps 742 mmHg 68%
    15:00 +16°C° 0.1 mm 7 mps 742 mmHg 70%
    16:00 +16°C° 0.1 mm 6 mps 742 mmHg 72%
    17:00 +15°C° 0 mm 6 mps 743 mmHg 75%
    18:00 +15°C° 0 mm 5 mps 743 mmHg 77%
    19:00 +14°C° 0 mm 5 mps 744 mmHg 80%
    20:00 +14°C° 0 mm 5 mps 744 mmHg 80%
    21:00 +14°C° 0 mm 4 mps 745 mmHg 81%
    22:00 +14°C° 0 mm 4 mps 745 mmHg 81%
    23:00 +14°C° 0 mm 4 mps 745 mmHg 83%
    Show more